Notices

What's New in latest Release from April 7th, 2021:

- Updated Glossary, including Speed of Maximum Gust, and Total Hourly Precipitation

- Updated national and regional climate services offices contacts and prices information

- Addition of station inventory lists for 1981-2010, 1971-2000, and 1961-1990 Normals.

If you haven't already, please take our survey and provide feedback about our website: https://eccc.sondage-survey.ca/f/LanguageSelection.aspx?s=442ca660-fcf1-47c0-95a9-59707d6fd709

Hourly Data Report for June 26, 2006

TORONTO CITY
ONTARIO

43°40'00.000" N
79°24'00.000" W
112.50 m
6158355
71508
XTO

Download Data

Hourly Data (June 2006)
Hourly Data Report for June 26, 2006
TIME
LST
Temp Definition
°C
Dew Point Definition
°C
Rel Hum Definition
%
Precip. Amount Definition
mm

Wind Dir Definition
10's deg

Wind Spd Definition
km/h
Visibility Definition
km
Stn Press Definition
kPa
Hmdx Definition


Wind Chill Definition


Weather Definition


00:00 22.3 15.0 63   LegendMM LegendMM   100.29 26   LegendNANA
01:00 21.2 16.0 72   LegendMM LegendMM   100.23 26   LegendNANA
02:00 20.4 17.6 84   LegendMM LegendMM   100.21 26   LegendNANA
03:00 20.4 17.7 84   LegendMM LegendMM   100.19 26   LegendNANA
04:00 20.2 18.3 89   LegendMM LegendMM   100.20 26   LegendNANA
05:00 20.1 18.3 89   LegendMM LegendMM   100.22 26   LegendNANA
06:00 20.2 17.4 84   LegendMM LegendMM   100.21 26   LegendNANA
07:00 20.5 16.4 77   LegendMM LegendMM   100.24 25   LegendNANA
08:00 19.8 16.7 82   LegendMM LegendMM   100.27     LegendNANA
09:00 21.3 17.5 79   LegendMM LegendMM   100.27 27   LegendNANA
10:00 21.7 18.1 80   LegendMM LegendMM   100.27 28   LegendNANA
11:00 22.7 17.6 73   LegendMM LegendMM   100.26 28   LegendNANA
12:00 22.5 18.0 76   LegendMM LegendMM   100.26 29   LegendNANA
13:00 22.9 18.5 76   LegendMM LegendMM   100.21 29   LegendNANA
14:00 22.4 18.1 77   LegendMM LegendMM   100.18 28   LegendNANA
15:00 23.1 18.2 74   LegendMM LegendMM   100.13 29   LegendNANA
16:00 23.6 18.5 73   LegendMM LegendMM   100.12 30   LegendNANA
17:00 22.3 18.2 78   LegendMM LegendMM   100.11 28   LegendNANA
18:00 22.0 18.1 79   LegendMM LegendMM   100.10 28   LegendNANA
19:00 21.3 18.3 83   LegendMM LegendMM   100.06 28   LegendNANA
20:00 20.4 18.6 89   LegendMM LegendMM   100.06 27   LegendNANA
21:00 20.5 19.0 91   LegendMM LegendMM   100.09 27   LegendNANA
22:00 20.4 19.0 92   LegendMM LegendMM   100.05 27   LegendNANA
23:00 20.5 19.4 93   LegendMM LegendMM   100.02 28   LegendNANA

Notes on Data Quality.

Legend

  • E = Estimated
  • M = Missing
  • NA = Not Available*
  • [empty] = Indicates an unobserved value
Date modified: